Regional Weather Roundup
Issued by NWS

Home | Current Version | Previous Version | Graphics & Text | Print | Product List | Glossary On
Versions: 1 2 3 4 5 6 7 8 9 10 11 12 13 14 15 16 17 18 19 20 21 22 23 24 25 26 27
000
ASUS45 KBOU 250107
RWRCO

WEATHER ROUNDUP FOR COLORADO
NATIONAL WEATHER SERVICE DENVER/BOULDER CO
700 PM MDT WED AUG 24 2016

NOTE: "FAIR" INDICATES FEW OR NO CLOUDS BELOW 12000 FEET WITH NO
SIGNIFICANT WEATHER AND/OR OBSTRUCTIONS TO VISIBILITY.

COZ001>005-013-030-031-250200-
...NORTHWEST COLORADO...

CITY           SKY/WX    TMP DP  RH WIND       PRES   REMARKS
CRAIG          FAIR      73  25  16 NW8       30.13S
HAYDEN         FAIR      72  27  18 NW7       30.16R
MEEKER         LGT RAIN  67  43  41 W14       30.19R
MOUNT WERNER   NOT AVBL
STEAMBOAT SPGS MOCLDY    70  35  27 NW5       30.17S
WALDEN         FAIR      54  41  62 E10       30.30S
$$

COZ006>008-011-250200-
...WEST CENTRAL VALLEYS...

CITY           SKY/WX    TMP DP  RH WIND       PRES   REMARKS
GRAND JUNCTION FAIR      80  34  19 NW12G17   30.07S
MONTROSE       FAIR      74  36  25 CALM      30.15S
EAGLE          FAIR      72  30  21 SW15      30.20F
RIFLE          FAIR      75  38  26 SE3       30.12F
DELTA          NOT AVBL
NUCLA          NOT AVBL
$$

COZ017>023-064>068-250200-
...SOUTHWEST COLORADO...

CITY           SKY/WX    TMP DP  RH WIND       PRES   REMARKS
DURANGO        FAIR      65  48  54 W5        30.22F
CORTEZ         FAIR      69  47  45 W6        30.18F
PAGOSA SPRINGS FAIR      57  44  61 CALM      30.32R
TELLURIDE      FAIR      61  34  36 CALM      30.40S
WOLF CREEK PAS FAIR      41  41 100 CALM      30.58R
$$

COZ009-010-012-014-032>034-037-058>063-250200-
...CENTRAL COLORADO...

CITY           SKY/WX    TMP DP  RH WIND       PRES   REMARKS
ASPEN          FAIR      63  37  38 SE3       30.28F
BUENA VISTA    MOCLDY    57  47  69 SE6       30.34R
COPPER MTN     FAIR      46  27  46 W8        30.54S
BERTHOUD PASS  FAIR      32  19  59 NW13      30.55S WCI  22
COTTONWOOD PAS MOCLDY    52  46  82 CALM      30.44R
GUNNISON       CLOUDY    64  39  39 N16       30.30R
KREMMLING      FAIR      59  45  58 E8        30.26R
LEADVILLE      FAIR      52  32  46 SW6       30.40S
MONARCH PASS   FAIR      43  36  75 W10       30.64S
SALIDA         FAIR      59  49  71 E3        30.38S
SUNLIGHT       FAIR      52  34  50 CALM      30.49F
WILKERSON PASS TSTM      41  39  93 E6        30.54F VSB<1/4
$$

COZ069>075-250200-
...SAN LUIS VALLEY/SANGRE DE CRISTO MOUNTAINS...

CITY           SKY/WX    TMP DP  RH WIND       PRES   REMARKS
ALAMOSA        CLOUDY    57  47  69 E12       30.30R
LA VETA PASS   SNOW      45  43  93 NE10      30.47S VSB<1/4
SAGUACHE       CLOUDY    55  46  71 N20G28    30.35R
$$

COZ035-036-038>040-250200-
...NORTHERN COLORADO FRONT RANGE...

CITY           SKY/WX    TMP DP  RH WIND       PRES   REMARKS
DENVER INTL AP MOCLDY    63  52  67 NE5       30.24R
DMNS CITY PARK   N/A     62  50  66 NE3       30.23R
AURORA         MOCLDY    62  50  63 S1        30.25R
FRONT RANGE AP MOCLDY    64  52  63 CALM      30.25R
ERIE MUNI ARPT LGT RAIN  65  47  52 E13       30.20F
BOULDER MUN AP CLOUDY    61  54  77 CALM      30.22S
CENTENNIAL     MOCLDY    61  47  59 S8        30.25R
BROOMFIELD     MOCLDY    64  50  59 E9        30.24
FORT COLLINS   NOT AVBL
LONGMONT       FAIR      64  52  65 CALM      30.23R
$$

COZ041-046-047-076>085-087-088-250200-
...PIKES PEAK/PALMER DIVIDE AND SOUTHERN FOOTHILLS...

CITY           SKY/WX    TMP DP  RH WIND       PRES   REMARKS
COLO. SPRINGS  MOCLDY    62  47  57 W6        30.29R
A. F. ACADEMY  FAIR      57  52  82 E2        30.30R
SCHRIEVER AFB  NOT AVBL
ELLICOTT       NOT AVBL
FALCON         FAIR      62  41  45 CALM      30.32R
FORT CARSON    NOT AVBL
LIMON          FAIR      66  34  30 E14       30.23R
MONUMENT HILL  MOCLDY    54  45  71 SE5       30.33R
TRINIDAD       LGT RAIN  57  55  93 NW9       30.28S
$$

COZ042>045-048>051-090-091-250200-
...NORTHEAST COLORADO...

CITY           SKY/WX    TMP DP  RH WIND       PRES   REMARKS
GREELEY ARPT   MOCLDY    64  48  55 W3        30.23R
AKRON          LGT RAIN  67  35  30 SE10      30.22R
BURLINGTON     FAIR      65  37  35 E12       30.18S
WRAY           FAIR      70  34  26 SE12G18   30.16S
STERLING       CLOUDY    68  46  45 S8        30.15F
HOLYOKE        FAIR      72  41  33 SE6       30.17R
FORT MORGAN    CLOUDY    66  41  39 E6        30.20R
$$

COZ086-089-092>099-250200-
...SOUTHEAST COLORADO...

CITY           SKY/WX    TMP DP  RH WIND       PRES   REMARKS
PUEBLO         MOCLDY    68  55  63 SW8       30.20S
LA JUNTA       FAIR      73  43  33 NE9       30.17R
LAMAR          FAIR      71  45  39 NE13      30.12R
SPRINGFIELD      N/A     70  54  56 NE13      30.11S
$$




USA.gov is the U.S. government's official web portal to all federal, state and local government web resources and services.